This demonstration page uses our WeatherBlox Daily Observations layout. Learn more.

Left ArrowRight Arrow

Hourly Observations for December 6, 2021

Temp ( °F °C ) Dew Point ( °F °C ) Humidity (%) Winds ( mph kmh ) Pressure ( in mb ) Visibility ( mi km ) Precip ( " mm )
12:59 am 00:59 Cloudy 52 11.1 43 6.1 72 72 WSW 5 7 30.13 1020 10 16 N/A
1:59 am 01:59 Cloudy 51 10.6 44 6.7 77 77 SW 3 6 30.13 1020 9 14 N/A
2:29 am 02:29 Cloudy 51 10.6 47 8.3 86 86 WSW 7 11 30.13 1020 8 13 N/A
2:59 am 02:59 Cloudy with Mist and Fog 51 10.6 48 8.9 89 89 SW 6 9 30.11 1020 6 10 N/A
3:26 am 03:26 Cloudy with Mist and Fog 51 10.6 48 8.9 89 89 WSW 7 11 30.11 1020 3 5 N/A
3:29 am 03:29 Cloudy with Mist and Fog 51 10.6 48 8.9 89 89 SW 7 11 30.11 1020 2 2 N/A
3:32 am 03:32 Cloudy with Mist and Fog 51 10.6 48 8.9 89 89 SW 7 11 30.11 1020 1 2 N/A
3:37 am 03:37 Cloudy with Mist and Fog 51 10.6 48 8.9 89 89 WSW 7 11 30.10 1019 1 1 N/A
3:47 am 03:47 Cloudy with Mist and Fog 51 10.6 48 8.9 89 89 SSW 5 7 30.10 1019 1 2 N/A
3:59 am 03:59 Cloudy with Mist and Fog 51 10.6 49 9.4 92 92 SSW 6 9 30.09 1019 1 1 N/A
4:15 am 04:15 Cloudy with Fog 51 10.6 48 8.9 89 89 SSW 7 11 30.09 1019 1 1 N/A
4:29 am 04:29 Mostly Cloudy with Fog 51 10.6 49 9.4 92 92 SSW 5 7 30.09 1019 0 0 N/A
4:47 am 04:47 Mostly Cloudy with Fog 51 10.6 49 9.4 92 92 S 6 9 30.07 1018 1 1 N/A
4:59 am 04:59 Mostly Cloudy with Fog 51 10.6 49 9.4 92 92 SSW 6 9 30.07 1018 1 1 N/A
5:22 am 05:22 Cloudy with Mist and Fog 51 10.6 49 9.4 92 92 SSW 8 13 30.08 1019 1 2 N/A
5:26 am 05:26 Mostly Cloudy with Mist and Fog 51 10.6 49 9.4 92 92 SSW 8 13 30.08 1019 2 3 N/A
5:37 am 05:37 Mostly Cloudy with Mist and Fog 52 11.1 49 9.4 89 89 SSW 7 11 30.08 1019 3 5 N/A
5:59 am 05:59 Mostly Cloudy with Mist and Fog 52 11.1 50 10 93 93 S 7 11 30.07 1018 3 5 N/A
6:06 am 06:06 Mostly Clear with Mist and Fog 52 11.1 50 10 93 93 S 8 13 30.07 1018 5 8 N/A
6:59 am 06:59 Mostly Clear with Mist and Fog 53 11.7 51 10.6 93 93 S 8 13 30.07 1018 6 10 N/A
7:59 am 07:59 Partly Cloudy with Mist and Fog 54 12.2 51 10.6 90 90 S 9 15 30.05 1018 6 10 N/A
8:59 am 08:59 Mostly Cloudy with Mist and Fog 56 13.3 52 11.1 87 87 SSW 9 15 30.04 1017 6 10 N/A
9:59 am 09:59 Mostly Cloudy 58 14.4 53 11.7 84 84 SSW 9 15 30.03 1017 7 11 N/A
10:59 am 10:59 Mostly Cloudy 63 17.2 56 13.3 78 78 SSW 8 13 29.98 1015 7 11 N/A
11:59 am 11:59 Mostly Cloudy 67 19.4 55 12.8 66 66 SW 12 19 29.95 1014 9 14 N/A
12:59 pm 12:59 Mostly Sunny 69 20.6 54 12.2 59 59 SW 9 15 29.91 1013 10 16 N/A
1:59 pm 13:59 Sunny 71 21.7 51 10.6 49 49 SW 12 19 29.88 1012 10 16 N/A
2:59 pm 14:59 Partly Cloudy 72 22.2 50 10 46 46 SSW 14 22 29.85 1011 10 16 N/A
3:59 pm 15:59 Partly Cloudy 71 21.7 50 10 47 47 SSW 13 20 29.83 1010 10 16 N/A
4:59 pm 16:59 Cloudy 69 20.6 49 9.4 49 49 SSW 16 26 29.82 1010 10 16 N/A
5:59 pm 17:59 Cloudy 69 20.6 50 10 51 51 SSW 14 22 29.82 1010 10 16 N/A
6:59 pm 18:59 Cloudy 68 20 51 10.6 55 55 SSW 13 20 29.81 1010 10 16 N/A
7:59 pm 19:59 Cloudy 67 19.4 52 11.1 59 59 SSW 10 17 29.82 1010 10 16 N/A
8:59 pm 20:59 Mostly Cloudy 67 19.4 52 11.1 59 59 SSW 10 17 29.84 1011 10 16 N/A
9:59 pm 21:59 Mostly Cloudy 66 18.9 52 11.1 61 61 SSW 9 15 29.86 1011 10 16 N/A
10:59 pm 22:59 Cloudy 67 19.4 53 11.7 61 61 WSW 7 11 29.91 1013 10 16 N/A
11:51 pm 23:51 Cloudy 58 14.4 42 5.6 56 56 NNE 20 31 29.97 1015 10 16 N/A
11:59 pm 23:59 Cloudy 57 13.9 42 5.6 58 58 NNE 16 26 29.97 1015 10 16 N/A

Powered by AerisWeather